Regional Weather Roundup
Issued by NWS Jackson, KY

Home | Current Version | Previous Version | Graphics & Text | Print | Product List | Glossary On
Versions: 1 2 3 4 5 6 7 8 9 10 11 12 13 14 15 16 17 18 19 20 21 22 23 24 25 26 27 28 29 30 31 32 33 34 35 36 37 38 39 40 41 42 43 44 45 46 47 48 49 50
000
ASUS43 KJKL 230405
RWRJKL

EAST KENTUCKY HOURLY WEATHER ROUNDUP
NATIONAL WEATHER SERVICE JACKSON KY
1100 PM EST SAT NOV 22 2014

NOTE: "FAIR" INDICATES FEW OR NO CLOUDS BELOW 12,000 FEET WITH
NO SIGNIFICANT WEATHER AND/OR OBSTRUCTIONS TO VISIBILITY.

* THESE REPORTS ARE NOT UNDER NWS QUALITY CONTROL AND MAY NOT
  REPORT WEATHER SUCH AS PRECIPITATION AND FOG.

KYZ079-080-083-085-087-088-110-112-115-119-120-230500
...EASTERN KENTUCKY...

CITY           SKY/WX    TMP DP  RH WIND       PRES   REMARKS
JACKSON        PTCLDY    50  28  42 VRB5      30.14S
LONDON         PTCLDY    50  30  46 S5        30.15S
SOMERSET*      CLOUDY    50  32  50 S3        30.15F
MONTICELLO*    MOCLDY    53  38  56 S7        30.16F
MIDDLESBORO*   PTCLDY    34  32  90 CALM      30.18F
HARLAN APT*    PTCLDY    48  23  37 SE3       30.18F
BIG SANDY*     CLEAR     52  25  34 S9        30.15R
MOREHEAD APT*  MOCLDY    48  27  43 S6        30.14F
$$

KYZ035-036-041-042-044-050-067-078-099-230500
...CENTRAL KENTUCKY...

CITY           SKY/WX    TMP DP  RH WIND       PRES   REMARKS
MT STERLING*   CLEAR     45  32  61 SW7       30.13S
FLEMING/MASON* PTCLDY    46  30  52 S8        30.12F
DANVILLE*      CLOUDY    50  36  57 SW8       30.12S
RICHMOND*      PTCLDY    50  32  50 CALM      30.12F
LEXINGTON      PTCLDY    48  35  60 S12       30.10F
FRANKFORT      PTCLDY    47  31  53 S5        30.08S
$$

KYZ091>093-OHZ055-061-077-WVZ005-015-034-035-042-230500
...SOUTHERN OHIO/WEST VIRGINIA...

CITY           SKY/WX    TMP DP  RH WIND       PRES   REMARKS
COVINGTON      MOCLDY    47  31  53 S9        30.07S
COLUMBUS       CLOUDY    48  32  53 S3        30.07F
DAYTON         LGT RAIN  52  37  56 S14       30.05S
WILMINGTON     CLOUDY    47  32  56 S9        30.08S
HUNTINGTON     PTCLDY    50  23  34 S5        30.13S
CHARLESTON     PTCLDY    45  26  47 S5        30.15S
PINEVILLE*     CLEAR     32  31  94 MISG      30.24F
BECKLEY        CLEAR     43  16  33 SE10      30.18F
BLUEFIELD      CLEAR     44  15  31 SE5       30.21S
$$

VAZ002-007-008-TNZ017-027-036-066-071-230500
...SOUTHWEST VIRGINIA/EAST TENNESSEE...

CITY           SKY/WX    TMP DP  RH WIND       PRES   REMARKS
WISE*          PTCLDY    50  21  32 S10       30.19F
JONESVILLE*    PTCLDY    32  28  86 CALM      30.22F
ABINGDON*      PTCLDY    42  21  44 CALM      30.23S
BRISTOL        MOCLDY    39  25  57 CALM      30.23S
KNOXVILLE      CLOUDY    43  30  60 N3        30.19S
OAK RIDGE      CLOUDY    44  36  73 CALM      30.20F
CROSSVILLE     MOCLDY    55  38  52 VRB7G18   30.16F
NASHVILLE      MOCLDY    54  38  54 S10       30.10F
$$

...KEY TO REMARKS...
VSB - VISIBILITY IN MILES
WCI - WIND CHILL INDEX
HX  - HEAT INDEX

$$


USA.gov is the U.S. government's official web portal to all federal, state and local government web resources and services.